EN

Hourly Weather Lacza

Today, 28 July, Wednesday

Time Temperature Precipitation Wind Pressure Humidity
00:00 +22°C° 0 mm 1 mps 740 mmHg 67%
01:00 +22°C° 0 mm 1 mps 739 mmHg 69%
02:00 +22°C° 0 mm 1 mps 739 mmHg 71%
03:00 +22°C° 0 mm 1 mps 739 mmHg 73%
04:00 +21°C° 0 mm 1 mps 739 mmHg 75%
05:00 +23°C° 0 mm 1 mps 739 mmHg 71%
06:00 +24°C° 0 mm 1 mps 739 mmHg 66%
07:00 +25°C° 0 mm 1 mps 739 mmHg 61%
08:00 +27°C° 0 mm 1 mps 739 mmHg 56%
09:00 +29°C° 0 mm 1 mps 739 mmHg 50%
10:00 +31°C° 0 mm 2 mps 739 mmHg 44%
11:00 +31°C° 0 mm 2 mps 739 mmHg 41%
12:00 +32°C° 0 mm 2 mps 738 mmHg 39%
13:00 +34°C° 0 mm 2 mps 738 mmHg 37%
14:00 +31°C° 0.2 mm 3 mps 738 mmHg 44%
15:00 +30°C° 0.2 mm 4 mps 738 mmHg 50%
16:00 +28°C° 0.2 mm 5 mps 738 mmHg 57%
17:00 +27°C° 0.5 mm 5 mps 738 mmHg 65%
18:00 +24°C° 0.5 mm 6 mps 738 mmHg 72%
19:00 +22°C° 0.5 mm 6 mps 738 mmHg 80%
20:00 +21°C° 3 mm 4 mps 738 mmHg 85%
21:00 +20°C° 3 mm 2 mps 739 mmHg 89%
22:00 +18°C° 3 mm 0 mps 740 mmHg 94%
23:00 +20°C° 0.1 mm 1 mps 740 mmHg 94%

Tomorrow, 29 July, Thursday

Time Temperature Precipitation Wind Pressure Humidity
00:00 +20°C° 0.1 mm 1 mps 740 mmHg 94%
01:00 +20°C° 0.1 mm 1 mps 740 mmHg 94%
02:00 +20°C° 0 mm 1 mps 740 mmHg 94%
03:00 +19°C° 0 mm 1 mps 740 mmHg 94%
04:00 +19°C° 0 mm 1 mps 740 mmHg 94%
05:00 +20°C° 0 mm 1 mps 740 mmHg 88%
06:00 +20°C° 0 mm 2 mps 740 mmHg 83%
07:00 +20°C° 0 mm 2 mps 740 mmHg 78%
08:00 +23°C° 0 mm 2 mps 740 mmHg 70%
09:00 +25°C° 0 mm 3 mps 740 mmHg 62%
10:00 +26°C° 0 mm 3 mps 740 mmHg 53%
11:00 +27°C° 0 mm 3 mps 740 mmHg 50%
12:00 +27°C° 0 mm 4 mps 740 mmHg 47%
13:00 +28°C° 0 mm 4 mps 740 mmHg 44%
14:00 +28°C° 0 mm 4 mps 740 mmHg 42%
15:00 +28°C° 0 mm 5 mps 740 mmHg 40%
16:00 +29°C° 0 mm 5 mps 740 mmHg 38%
17:00 +27°C° 0 mm 4 mps 739 mmHg 44%
18:00 +25°C° 0 mm 3 mps 739 mmHg 50%
19:00 +24°C° 0 mm 2 mps 739 mmHg 56%
20:00 +23°C° 0 mm 2 mps 739 mmHg 58%
21:00 +22°C° 0 mm 1 mps 739 mmHg 60%
22:00 +21°C° 0 mm 1 mps 739 mmHg 61%
23:00 +21°C° 0 mm 1 mps 739 mmHg 65%

Day after tomorrow, 30 July, Friday

Time Temperature Precipitation Wind Pressure Humidity
00:00 +20°C° 0 mm 1 mps 739 mmHg 68%
01:00 +19°C° 0 mm 1 mps 739 mmHg 71%
02:00 +19°C° 0 mm 1 mps 739 mmHg 72%
03:00 +19°C° 0 mm 1 mps 739 mmHg 73%
04:00 +19°C° 0 mm 1 mps 739 mmHg 74%
05:00 +20°C° 0 mm 1 mps 739 mmHg 68%
06:00 +22°C° 0 mm 1 mps 739 mmHg 63%
07:00 +23°C° 0 mm 1 mps 739 mmHg 57%
08:00 +25°C° 0 mm 2 mps 739 mmHg 52%
09:00 +27°C° 0 mm 2 mps 739 mmHg 47%
10:00 +28°C° 0 mm 3 mps 739 mmHg 42%
11:00 +29°C° 0 mm 3 mps 738 mmHg 40%
12:00 +30°C° 0 mm 3 mps 738 mmHg 39%
13:00 +32°C° 0 mm 4 mps 737 mmHg 37%
14:00 +32°C° 0 mm 4 mps 737 mmHg 36%
15:00 +32°C° 0 mm 4 mps 737 mmHg 36%
16:00 +32°C° 0 mm 4 mps 737 mmHg 35%
17:00 +30°C° 0 mm 3 mps 737 mmHg 41%
18:00 +28°C° 0 mm 3 mps 737 mmHg 48%
19:00 +26°C° 0 mm 2 mps 737 mmHg 54%
20:00 +25°C° 0 mm 2 mps 736 mmHg 56%
21:00 +24°C° 0 mm 1 mps 736 mmHg 58%
22:00 +23°C° 0 mm 1 mps 736 mmHg 60%
23:00 +23°C° 0 mm 1 mps 736 mmHg 62%

31 July, Saturday

Time Temperature Precipitation Wind Pressure Humidity
00:00 +21°C° 0 mm 2 mps 736 mmHg 63%
01:00 +21°C° 0 mm 2 mps 736 mmHg 65%
02:00 +21°C° 0 mm 2 mps 736 mmHg 68%
03:00 +21°C° 0 mm 2 mps 736 mmHg 71%
04:00 +20°C° 0 mm 2 mps 736 mmHg 75%
05:00 +21°C° 0.4 mm 2 mps 736 mmHg 75%
06:00 +21°C° 0.4 mm 2 mps 736 mmHg 76%
07:00 +23°C° 0.4 mm 2 mps 736 mmHg 77%
08:00 +24°C° 0.4 mm 2 mps 736 mmHg 74%
09:00 +25°C° 0.4 mm 2 mps 736 mmHg 71%
10:00 +25°C° 0.4 mm 2 mps 737 mmHg 67%
11:00 +26°C° 0.5 mm 2 mps 737 mmHg 64%
12:00 +26°C° 0.5 mm 3 mps 737 mmHg 61%
13:00 +27°C° 0.5 mm 3 mps 737 mmHg 58%
14:00 +27°C° 0.1 mm 3 mps 737 mmHg 52%
15:00 +27°C° 0.1 mm 4 mps 737 mmHg 47%
16:00 +28°C° 0.1 mm 4 mps 737 mmHg 42%
17:00 +26°C° 0 mm 4 mps 737 mmHg 45%
18:00 +25°C° 0 mm 3 mps 737 mmHg 49%
19:00 +24°C° 0 mm 3 mps 737 mmHg 52%
20:00 +21°C° 0 mm 2 mps 737 mmHg 56%
21:00 +20°C° 0 mm 2 mps 737 mmHg 59%
22:00 +19°C° 0 mm 2 mps 738 mmHg 62%
23:00 +20°C° 0 mm 1 mps 738 mmHg 65%

1 August, Sunday

Time Temperature Precipitation Wind Pressure Humidity
00:00 +19°C° 0 mm 1 mps 738 mmHg 67%
01:00 +19°C° 0 mm 1 mps 738 mmHg 69%
02:00 +18°C° 0 mm 1 mps 738 mmHg 70%
03:00 +18°C° 0 mm 1 mps 737 mmHg 70%
04:00 +18°C° 0 mm 1 mps 737 mmHg 71%
05:00 +19°C° 0.1 mm 1 mps 737 mmHg 68%
06:00 +20°C° 0.1 mm 1 mps 738 mmHg 65%
07:00 +19°C° 0.1 mm 0 mps 738 mmHg 62%
08:00 +22°C° 0.1 mm 1 mps 737 mmHg 61%
09:00 +23°C° 0.1 mm 2 mps 737 mmHg 59%
10:00 +24°C° 0.1 mm 3 mps 737 mmHg 58%
11:00 +23°C° 0.3 mm 2 mps 736 mmHg 62%
12:00 +23°C° 0.3 mm 2 mps 736 mmHg 67%
13:00 +22°C° 0.3 mm 1 mps 736 mmHg 72%
14:00 +20°C° 3.2 mm 2 mps 735 mmHg 79%
15:00 +19°C° 3.2 mm 3 mps 735 mmHg 86%
16:00 +18°C° 3.2 mm 4 mps 735 mmHg 93%
17:00 +17°C° 1.1 mm 4 mps 735 mmHg 93%
18:00 +17°C° 1.1 mm 4 mps 735 mmHg 93%
19:00 +15°C° 1.1 mm 5 mps 735 mmHg 92%
20:00 +15°C° 0.9 mm 4 mps 736 mmHg 93%
21:00 +15°C° 0.9 mm 4 mps 736 mmHg 94%
22:00 +14°C° 0.9 mm 4 mps 736 mmHg 95%
23:00 +14°C° 0.6 mm 3 mps 736 mmHg 95%

2 August, Monday

Time Temperature Precipitation Wind Pressure Humidity
00:00 +15°C° 0.6 mm 2 mps 737 mmHg 94%
01:00 +15°C° 0.6 mm 2 mps 737 mmHg 94%
02:00 +15°C° 0.1 mm 2 mps 737 mmHg 94%
03:00 +15°C° 0.1 mm 2 mps 737 mmHg 94%
04:00 +15°C° 0.1 mm 2 mps 737 mmHg 93%
05:00 +16°C° 0 mm 2 mps 737 mmHg 91%
06:00 +16°C° 0 mm 2 mps 738 mmHg 88%
07:00 +17°C° 0 mm 2 mps 738 mmHg 86%
08:00 +18°C° 0.2 mm 3 mps 738 mmHg 78%
09:00 +20°C° 0.2 mm 3 mps 738 mmHg 71%
10:00 +21°C° 0.2 mm 3 mps 738 mmHg 64%
11:00 +22°C° 0.2 mm 4 mps 738 mmHg 58%
12:00 +23°C° 0.2 mm 4 mps 738 mmHg 52%
13:00 +25°C° 0.2 mm 4 mps 738 mmHg 47%
14:00 +23°C° 0.1 mm 4 mps 738 mmHg 51%
15:00 +23°C° 0.1 mm 4 mps 739 mmHg 54%
16:00 +22°C° 0.1 mm 4 mps 739 mmHg 58%
17:00 +21°C° 0.2 mm 3 mps 739 mmHg 63%
18:00 +20°C° 0.2 mm 2 mps 739 mmHg 68%
19:00 +19°C° 0.2 mm 2 mps 739 mmHg 73%
20:00 +18°C° 0.1 mm 2 mps 739 mmHg 76%
21:00 +18°C° 0.1 mm 1 mps 739 mmHg 80%
22:00 +16°C° 0.1 mm 1 mps 740 mmHg 84%
23:00 +16°C° 0 mm 1 mps 740 mmHg 85%
Show more